Time,TemperatureF,DewpointF,PressureIn,WindDirection,WindDirectionDegrees,WindSpeedMPH,WindSpeedGustMPH,Humidity,HourlyPrecipIn,Conditions,Clouds,dailyrainin,SoftwareType,DateUTC
2013-05-07 00:00:00,58.1,48.7,30.01,NE,34,0.0,0.0,71,0.00,,,0.00,meteohub,2013-05-07 05:00:00,
2013-05-07 00:05:00,57.7,48.4,30.01,NNE,33,0.0,0.0,71,0.00,,,0.00,meteohub,2013-05-07 05:05:00,
2013-05-07 00:10:00,58.1,48.4,30.01,NE,34,0.0,0.0,70,0.00,,,0.00,meteohub,2013-05-07 05:10:00,
2013-05-07 00:16:00,57.9,48.2,30.01,NE,34,0.0,0.0,70,0.00,,,0.00,meteohub,2013-05-07 05:16:00,
2013-05-07 00:21:00,57.9,48.6,30.01,NE,34,0.0,0.0,71,0.00,,,0.00,meteohub,2013-05-07 05:21:00,
2013-05-07 00:26:00,57.7,48.4,30.01,NE,34,0.0,0.0,71,0.00,,,0.00,meteohub,2013-05-07 05:26:00,
2013-05-07 00:31:00,57.6,48.2,30.01,NNE,33,0.0,1.0,71,0.00,,,0.00,meteohub,2013-05-07 05:31:00,
2013-05-07 00:36:00,57.4,48.4,30.01,NE,34,0.0,1.0,72,0.00,,,0.00,meteohub,2013-05-07 05:36:00,
2013-05-07 00:41:00,56.8,47.8,30.01,NE,34,0.0,1.0,72,0.00,,,0.00,meteohub,2013-05-07 05:41:00,
2013-05-07 00:46:00,56.7,48.0,30.01,NNE,33,0.0,0.0,73,0.00,,,0.00,meteohub,2013-05-07 05:46:00,
2013-05-07 00:51:00,56.7,48.0,30.01,NE,34,0.0,0.0,73,0.00,,,0.00,meteohub,2013-05-07 05:51:00,
2013-05-07 00:56:00,56.5,48.4,30.01,NE,34,0.0,0.0,74,0.00,,,0.00,meteohub,2013-05-07 05:56:00,
2013-05-07 01:01:00,56.3,48.2,30.01,NNE,33,0.0,0.0,74,0.00,,,0.00,meteohub,2013-05-07 06:01:00,
2013-05-07 01:06:00,56.1,48.0,30.01,NNE,33,0.0,0.0,74,0.00,,,0.00,meteohub,2013-05-07 06:06:00,
2013-05-07 01:11:00,56.1,48.4,30.02,NE,34,0.0,0.0,75,0.00,,,0.00,meteohub,2013-05-07 06:11:00,
2013-05-07 01:16:00,56.1,48.4,30.01,NNE,33,0.0,0.0,75,0.00,,,0.00,meteohub,2013-05-07 06:16:00,
2013-05-07 01:22:00,56.1,48.0,30.01,NE,34,0.0,0.0,74,0.00,,,0.00,meteohub,2013-05-07 06:22:00,
2013-05-07 01:27:00,56.1,48.0,30.01,NE,34,0.0,0.0,74,0.00,,,0.00,meteohub,2013-05-07 06:27:00,
2013-05-07 01:32:00,56.1,48.0,30.01,NNE,33,0.0,0.0,74,0.00,,,0.00,meteohub,2013-05-07 06:32:00,
2013-05-07 01:37:00,56.1,48.0,30.01,NE,34,0.0,0.0,74,0.00,,,0.00,meteohub,2013-05-07 06:37:00,
2013-05-07 01:42:00,56.1,48.0,30.01,NNE,33,0.0,0.0,74,0.00,,,0.00,meteohub,2013-05-07 06:42:00,
2013-05-07 01:47:00,56.1,48.0,30.01,NNE,33,0.0,0.0,74,0.00,,,0.00,meteohub,2013-05-07 06:47:00,
2013-05-07 01:52:00,55.9,47.8,30.01,NE,34,0.0,0.0,74,0.00,,,0.00,meteohub,2013-05-07 06:52:00,
2013-05-07 01:57:00,55.9,47.8,30.01,NE,34,0.0,0.0,74,0.00,,,0.00,meteohub,2013-05-07 06:57:00,
2013-05-07 02:02:00,55.9,47.5,30.01,NE,34,0.0,0.0,73,0.00,,,0.00,meteohub,2013-05-07 07:02:00,
2013-05-07 02:07:00,55.8,47.7,30.01,NNE,33,0.0,0.0,74,0.00,,,0.00,meteohub,2013-05-07 07:07:00,
2013-05-07 02:12:00,55.8,47.7,30.01,NE,34,0.0,0.0,74,0.00,,,0.00,meteohub,2013-05-07 07:12:00,
2013-05-07 02:17:00,55.8,47.7,30.01,NE,34,0.0,0.0,74,0.00,,,0.00,meteohub,2013-05-07 07:17:00,
2013-05-07 02:22:00,55.6,47.5,30.01,NNE,33,0.0,0.0,74,0.00,,,0.00,meteohub,2013-05-07 07:22:00,
2013-05-07 02:27:00,55.2,47.1,30.01,NNE,33,0.0,0.0,74,0.00,,,0.00,meteohub,2013-05-07 07:27:00,
2013-05-07 02:32:00,55.0,46.9,30.01,NE,34,0.0,0.0,74,0.00,,,0.00,meteohub,2013-05-07 07:32:00,
2013-05-07 02:37:00,54.9,47.1,30.01,NE,34,0.0,0.0,75,0.00,,,0.00,meteohub,2013-05-07 07:37:00,
2013-05-07 02:42:00,54.7,46.9,30.01,NNE,33,0.0,0.0,75,0.00,,,0.00,meteohub,2013-05-07 07:42:00,
2013-05-07 02:47:00,54.5,46.8,30.01,NE,34,0.0,0.0,75,0.00,,,0.00,meteohub,2013-05-07 07:47:00,
2013-05-07 02:52:00,54.3,46.6,30.01,NE,34,0.0,0.0,75,0.00,,,0.00,meteohub,2013-05-07 07:52:00,
2013-05-07 02:57:00,54.1,46.8,30.01,NNE,33,0.0,0.0,76,0.00,,,0.00,meteohub,2013-05-07 07:57:00,
2013-05-07 03:02:00,54.1,46.8,30.01,NNE,33,0.0,0.0,76,0.00,,,0.00,meteohub,2013-05-07 08:02:00,
2013-05-07 03:07:00,54.0,46.6,30.01,NE,34,0.0,0.0,76,0.00,,,0.00,meteohub,2013-05-07 08:07:00,
2013-05-07 03:12:00,53.8,46.4,30.01,NE,34,0.0,0.0,76,0.00,,,0.00,meteohub,2013-05-07 08:12:00,
2013-05-07 03:17:00,53.8,46.8,30.01,NE,34,0.0,0.0,77,0.00,,,0.00,meteohub,2013-05-07 08:17:00,
2013-05-07 03:22:00,53.6,46.6,30.01,NNE,33,0.0,0.0,77,0.00,,,0.00,meteohub,2013-05-07 08:22:00,
2013-05-07 03:27:00,53.4,46.4,30.01,NE,34,0.0,0.0,77,0.00,,,0.00,meteohub,2013-05-07 08:27:00,
2013-05-07 03:32:00,53.2,46.2,30.01,NE,34,0.0,0.0,77,0.00,,,0.00,meteohub,2013-05-07 08:32:00,
2013-05-07 03:37:00,53.1,46.0,30.01,NE,34,0.0,0.0,77,0.00,,,0.00,meteohub,2013-05-07 08:37:00,
2013-05-07 03:42:00,53.1,46.4,30.01,NE,34,0.0,0.0,78,0.00,,,0.00,meteohub,2013-05-07 08:42:00,
2013-05-07 03:47:00,52.9,46.2,30.01,NE,34,0.0,0.0,78,0.00,,,0.00,meteohub,2013-05-07 08:47:00,
2013-05-07 03:52:00,52.9,46.6,30.01,NE,34,0.0,0.0,79,0.00,,,0.00,meteohub,2013-05-07 08:52:00,
2013-05-07 03:57:00,52.5,46.2,30.01,NNE,33,0.0,0.0,79,0.00,,,0.00,meteohub,2013-05-07 08:57:00,
2013-05-07 04:02:00,52.3,46.0,30.01,NE,34,0.0,0.0,79,0.00,,,0.00,meteohub,2013-05-07 09:02:00,
2013-05-07 04:07:00,52.3,46.0,30.01,NE,34,0.0,0.0,79,0.00,,,0.00,meteohub,2013-05-07 09:07:00,
2013-05-07 04:12:00,52.2,45.9,30.01,NE,34,0.0,0.0,79,0.00,,,0.00,meteohub,2013-05-07 09:12:00,
2013-05-07 04:17:00,52.0,45.7,30.01,NNE,33,0.0,0.0,79,0.00,,,0.00,meteohub,2013-05-07 09:17:00,
2013-05-07 04:22:00,51.8,45.9,30.01,NE,34,0.0,0.0,80,0.00,,,0.00,meteohub,2013-05-07 09:22:00,
2013-05-07 04:27:00,51.6,45.7,30.02,NE,34,0.0,0.0,80,0.00,,,0.00,meteohub,2013-05-07 09:27:00,
2013-05-07 04:32:00,51.6,45.7,30.02,NNE,33,0.0,0.0,80,0.00,,,0.00,meteohub,2013-05-07 09:32:00,
2013-05-07 04:37:00,51.4,45.9,30.02,NNE,33,0.0,0.0,81,0.00,,,0.00,meteohub,2013-05-07 09:37:00,
2013-05-07 04:42:00,51.4,45.9,30.02,NE,34,0.0,0.0,81,0.00,,,0.00,meteohub,2013-05-07 09:42:00,
2013-05-07 04:47:00,51.3,45.7,30.02,NE,34,0.0,0.0,81,0.00,,,0.00,meteohub,2013-05-07 09:47:00,
2013-05-07 04:52:00,51.1,45.5,30.02,NNE,33,0.0,0.0,81,0.00,,,0.00,meteohub,2013-05-07 09:52:00,
2013-05-07 04:57:00,50.9,45.3,30.02,NE,34,0.0,0.0,81,0.00,,,0.00,meteohub,2013-05-07 09:57:00,
2013-05-07 05:02:00,50.7,45.5,30.02,NE,34,0.0,0.0,82,0.00,,,0.00,meteohub,2013-05-07 10:02:00,
2013-05-07 05:07:00,50.7,45.5,30.02,NNE,33,0.0,0.0,82,0.00,,,0.00,meteohub,2013-05-07 10:07:00,
2013-05-07 05:12:00,50.5,45.3,30.02,NNE,33,0.0,0.0,82,0.00,,,0.00,meteohub,2013-05-07 10:12:00,
2013-05-07 05:17:00,50.5,45.3,30.02,NE,34,0.0,0.0,82,0.00,,,0.00,meteohub,2013-05-07 10:17:00,
2013-05-07 05:22:00,50.4,45.1,30.02,NE,34,0.0,0.0,82,0.00,,,0.00,meteohub,2013-05-07 10:22:00,
2013-05-07 05:27:00,50.4,45.1,30.03,NE,34,0.0,0.0,82,0.00,,,0.00,meteohub,2013-05-07 10:27:00,
2013-05-07 05:32:00,50.2,45.1,30.02,NNE,33,0.0,0.0,83,0.00,,,0.00,meteohub,2013-05-07 10:32:00,
2013-05-07 05:37:00,50.2,45.1,30.02,NE,34,0.0,0.0,83,0.00,,,0.00,meteohub,2013-05-07 10:37:00,
2013-05-07 05:42:00,50.2,45.1,30.02,NE,34,0.0,0.0,83,0.00,,,0.00,meteohub,2013-05-07 10:42:00,
2013-05-07 05:47:00,50.0,45.0,30.02,NNE,33,0.0,0.0,83,0.00,,,0.00,meteohub,2013-05-07 10:47:00,
2013-05-07 05:52:00,49.8,44.8,30.03,NE,34,0.0,0.0,83,0.00,,,0.00,meteohub,2013-05-07 10:52:00,
2013-05-07 05:57:00,49.8,44.8,30.03,NE,34,0.0,0.0,83,0.00,,,0.00,meteohub,2013-05-07 10:57:00,
2013-05-07 06:02:00,49.6,44.8,30.03,NE,34,0.0,0.0,83,0.00,,,0.00,meteohub,2013-05-07 11:02:00,
2013-05-07 06:07:00,49.6,45.0,30.03,NNE,33,0.0,0.0,84,0.00,,,0.00,meteohub,2013-05-07 11:07:00,
2013-05-07 06:12:00,49.6,45.0,30.03,NE,34,0.0,0.0,84,0.00,,,0.00,meteohub,2013-05-07 11:12:00,
2013-05-07 06:17:00,49.6,45.0,30.03,NE,34,0.0,0.0,84,0.00,,,0.00,meteohub,2013-05-07 11:17:00,
2013-05-07 06:22:00,49.6,45.0,30.03,NNE,33,0.0,0.0,84,0.00,,,0.00,meteohub,2013-05-07 11:22:00,
2013-05-07 06:27:00,49.5,44.8,30.03,NNE,33,0.0,0.0,84,0.00,,,0.00,meteohub,2013-05-07 11:27:00,
2013-05-07 06:32:00,49.5,44.8,30.03,NE,34,0.0,0.0,84,0.00,,,0.00,meteohub,2013-05-07 11:32:00,
2013-05-07 06:37:00,49.5,44.8,30.03,NE,34,0.0,0.0,84,0.00,,,0.00,meteohub,2013-05-07 11:37:00,
2013-05-07 06:42:00,49.3,44.6,30.03,NE,34,0.0,0.0,84,0.00,,,0.00,meteohub,2013-05-07 11:42:00,
2013-05-07 06:47:00,49.3,44.6,30.04,NE,34,0.0,0.0,84,0.00,,,0.00,meteohub,2013-05-07 11:47:00,
2013-05-07 06:52:00,49.3,45.0,30.04,NE,34,0.0,0.0,85,0.00,,,0.00,meteohub,2013-05-07 11:52:00,
2013-05-07 06:57:00,49.3,45.0,30.04,NNE,33,0.0,0.0,85,0.00,,,0.00,meteohub,2013-05-07 11:57:00,
2013-05-07 07:02:00,49.5,45.1,30.04,NE,34,0.0,0.0,85,0.00,,,0.00,meteohub,2013-05-07 12:02:00,
2013-05-07 07:07:00,49.3,45.0,30.04,NNE,33,0.0,0.0,85,0.00,,,0.00,meteohub,2013-05-07 12:07:00,
2013-05-07 07:12:00,49.5,45.1,30.04,NE,34,0.0,0.0,85,0.00,,,0.00,meteohub,2013-05-07 12:12:00,
2013-05-07 07:17:00,49.5,45.5,30.05,NE,34,0.0,0.0,86,0.00,,,0.00,meteohub,2013-05-07 12:17:00,
2013-05-07 07:22:00,49.6,45.7,30.05,NNE,33,0.0,0.0,86,0.00,,,0.00,meteohub,2013-05-07 12:22:00,
2013-05-07 07:27:00,49.8,45.9,30.05,NE,34,0.0,0.0,86,0.00,,,0.00,meteohub,2013-05-07 12:27:00,
2013-05-07 07:32:00,50.0,46.0,30.05,NE,34,0.0,0.0,86,0.00,,,0.00,meteohub,2013-05-07 12:32:00,
2013-05-07 07:37:00,50.2,46.2,30.05,NE,34,0.0,0.0,86,0.00,,,0.00,meteohub,2013-05-07 12:37:00,
2013-05-07 07:42:00,50.5,46.8,30.05,NNE,32,0.0,0.0,87,0.00,,,0.00,meteohub,2013-05-07 12:42:00,
2013-05-07 07:47:00,51.1,47.3,30.04,NNE,32,0.0,0.0,87,0.00,,,0.00,meteohub,2013-05-07 12:47:00,
2013-05-07 07:52:00,51.8,48.4,30.04,NNE,32,0.0,0.0,88,0.00,,,0.00,meteohub,2013-05-07 12:52:00,
2013-05-07 07:57:00,52.5,49.1,30.04,NNE,32,0.0,0.0,88,0.00,,,0.00,meteohub,2013-05-07 12:57:00,
2013-05-07 08:02:00,53.2,49.8,30.04,NNE,32,0.0,0.0,88,0.00,,,0.00,meteohub,2013-05-07 13:02:00,
2013-05-07 08:07:00,54.0,50.5,30.04,NNE,32,0.0,0.0,88,0.00,,,0.00,meteohub,2013-05-07 13:07:00,
2013-05-07 08:12:00,55.0,51.6,30.04,NNE,32,0.0,0.0,88,0.00,,,0.00,meteohub,2013-05-07 13:12:00,
2013-05-07 08:17:00,55.9,52.5,30.05,NNE,32,0.0,0.0,88,0.00,,,0.00,meteohub,2013-05-07 13:17:00,
2013-05-07 08:22:00,56.7,53.1,30.04,NNE,32,0.0,0.0,88,0.00,,,0.00,meteohub,2013-05-07 13:22:00,
2013-05-07 08:27:00,57.0,53.2,30.04,NNE,32,0.0,0.0,87,0.00,,,0.00,meteohub,2013-05-07 13:27:00,
2013-05-07 08:32:00,57.6,53.8,30.04,NNE,32,0.0,0.0,87,0.00,,,0.00,meteohub,2013-05-07 13:32:00,
2013-05-07 08:37:00,57.9,53.8,30.04,NNE,32,0.0,0.0,86,0.00,,,0.00,meteohub,2013-05-07 13:37:00,
2013-05-07 08:42:00,58.6,54.1,30.04,NNE,32,0.0,0.0,85,0.00,,,0.00,meteohub,2013-05-07 13:42:00,
2013-05-07 08:47:00,59.0,53.8,30.04,WNW,292,0.0,1.0,83,0.00,,,0.00,meteohub,2013-05-07 13:47:00,
2013-05-07 08:52:00,60.8,53.2,30.04,WNW,292,0.0,1.0,76,0.00,,,0.00,meteohub,2013-05-07 13:52:00,
2013-05-07 08:57:00,61.9,52.3,30.04,WNW,292,0.0,1.0,71,0.00,,,0.00,meteohub,2013-05-07 13:57:00,
2013-05-07 09:02:00,62.2,51.6,30.04,WNW,288,1.0,2.0,68,0.00,,,0.00,meteohub,2013-05-07 14:02:00,
2013-05-07 09:07:00,62.4,51.3,30.04,WNW,288,0.0,3.0,67,0.00,,,0.00,meteohub,2013-05-07 14:07:00,
2013-05-07 09:12:00,63.0,51.8,30.04,WNW,291,0.0,3.0,67,0.00,,,0.00,meteohub,2013-05-07 14:12:00,
2013-05-07 09:17:00,63.9,51.8,30.04,WNW,288,0.0,3.0,65,0.00,,,0.00,meteohub,2013-05-07 14:17:00,
2013-05-07 09:22:00,64.2,51.8,30.04,WNW,289,0.0,3.0,64,0.00,,,0.00,meteohub,2013-05-07 14:22:00,
2013-05-07 09:27:00,64.9,52.0,30.04,WNW,294,0.0,3.0,63,0.00,,,0.00,meteohub,2013-05-07 14:27:00,
2013-05-07 09:32:00,65.7,52.3,30.04,WNW,294,1.0,3.0,62,0.00,,,0.00,meteohub,2013-05-07 14:32:00,
2013-05-07 09:37:00,66.0,51.8,30.04,WNW,302,0.0,1.0,60,0.00,,,0.00,meteohub,2013-05-07 14:37:00,
2013-05-07 09:42:00,66.7,52.9,30.03,WNW,300,0.0,2.0,61,0.00,,,0.00,meteohub,2013-05-07 14:42:00,
2013-05-07 09:47:00,67.3,52.9,30.03,WNW,298,1.0,3.0,60,0.00,,,0.00,meteohub,2013-05-07 14:47:00,
2013-05-07 09:52:00,68.5,54.1,30.03,North,355,0.0,3.0,60,0.00,,,0.00,meteohub,2013-05-07 14:52:00,
2013-05-07 09:57:00,69.3,52.9,30.03,NNW,335,0.0,3.0,56,0.00,,,0.00,meteohub,2013-05-07 14:57:00,
2013-05-07 10:02:00,69.4,52.5,30.03,NNW,329,0.0,2.0,55,0.00,,,0.00,meteohub,2013-05-07 15:02:00,
2013-05-07 10:07:00,69.6,53.8,30.03,SSW,200,2.0,3.0,57,0.00,,,0.00,meteohub,2013-05-07 15:07:00,
2013-05-07 10:12:00,70.0,53.1,30.03,SSW,194,0.0,3.0,55,0.00,,,0.00,meteohub,2013-05-07 15:12:00,
2013-05-07 10:17:00,70.3,52.3,30.03,West,275,0.0,3.0,53,0.00,,,0.00,meteohub,2013-05-07 15:17:00,
2013-05-07 10:22:00,71.2,52.7,30.03,WNW,289,0.0,3.0,52,0.00,,,0.00,meteohub,2013-05-07 15:22:00,
2013-05-07 10:27:00,72.1,53.1,30.03,NNW,330,0.0,3.0,51,0.00,,,0.00,meteohub,2013-05-07 15:27:00,
2013-05-07 10:32:00,72.0,53.4,30.03,NW,324,0.0,3.0,52,0.00,,,0.00,meteohub,2013-05-07 15:32:00,
2013-05-07 10:37:00,72.7,52.3,30.02,North,350,0.0,3.0,49,0.00,,,0.00,meteohub,2013-05-07 15:37:00,
2013-05-07 10:42:00,72.9,52.0,30.02,North,355,0.0,5.0,48,0.00,,,0.00,meteohub,2013-05-07 15:42:00,
2013-05-07 10:47:00,73.0,52.2,30.02,North,349,0.0,5.0,48,0.00,,,0.00,meteohub,2013-05-07 15:47:00,
2013-05-07 10:52:00,73.2,52.3,30.02,NNE,32,0.0,2.0,48,0.00,,,0.00,meteohub,2013-05-07 15:52:00,
2013-05-07 10:57:00,73.0,52.7,30.02,NE,39,0.0,4.0,49,0.00,,,0.00,meteohub,2013-05-07 15:57:00,
2013-05-07 11:02:00,73.6,52.7,30.02,NW,308,0.0,6.0,48,0.00,,,0.00,meteohub,2013-05-07 16:02:00,
2013-05-07 11:07:00,73.8,53.4,30.02,NNW,346,0.0,7.0,49,0.00,,,0.00,meteohub,2013-05-07 16:07:00,
2013-05-07 11:12:00,73.6,52.7,30.02,WNW,295,0.0,7.0,48,0.00,,,0.00,meteohub,2013-05-07 16:12:00,
2013-05-07 11:17:00,73.0,51.1,30.02,NNE,17,0.0,7.0,46,0.00,,,0.00,meteohub,2013-05-07 16:17:00,
2013-05-07 11:22:00,72.7,50.7,30.02,North,0,2.0,5.0,46,0.00,,,0.00,meteohub,2013-05-07 16:22:00,
2013-05-07 11:27:00,72.1,50.7,30.01,NE,45,1.0,5.0,47,0.00,,,0.00,meteohub,2013-05-07 16:27:00,
2013-05-07 11:32:00,73.2,51.8,30.01,ENE,64,0.0,5.0,47,0.00,,,0.00,meteohub,2013-05-07 16:32:00,
2013-05-07 11:37:00,73.2,51.8,30.01,NE,48,0.0,5.0,47,0.00,,,0.00,meteohub,2013-05-07 16:37:00,
2013-05-07 11:42:00,73.8,52.3,30.01,NNE,33,0.0,5.0,47,0.00,,,0.00,meteohub,2013-05-07 16:42:00,
2013-05-07 11:47:00,74.3,53.4,30.01,NW,304,1.0,4.0,48,0.00,,,0.00,meteohub,2013-05-07 16:47:00,
2013-05-07 11:52:00,74.5,52.3,30.01,NW,312,0.0,4.0,46,0.00,,,0.00,meteohub,2013-05-07 16:52:00,
2013-05-07 11:57:00,73.2,51.3,30.01,NW,307,1.0,3.0,46,0.00,,,0.00,meteohub,2013-05-07 16:57:00,
2013-05-07 12:02:00,74.7,52.5,30.01,NW,313,0.0,3.0,46,0.00,,,0.00,meteohub,2013-05-07 17:02:00,
2013-05-07 12:07:00,73.9,50.7,30.01,NW,309,0.0,3.0,44,0.00,,,0.00,meteohub,2013-05-07 17:07:00,
2013-05-07 12:12:00,72.9,50.9,30.01,NNW,335,0.0,3.0,46,0.00,,,0.00,meteohub,2013-05-07 17:12:00,
2013-05-07 12:17:00,72.5,51.1,30.01,WNW,300,0.0,3.0,47,0.00,,,0.00,meteohub,2013-05-07 17:17:00,
2013-05-07 12:22:00,73.0,50.4,30.01,North,349,0.0,2.0,45,0.00,,,0.00,meteohub,2013-05-07 17:22:00,
2013-05-07 12:27:00,73.0,50.4,30.01,East,96,0.0,4.0,45,0.00,,,0.00,meteohub,2013-05-07 17:27:00,
2013-05-07 12:32:00,73.0,49.8,30.01,East,96,0.0,4.0,44,0.00,,,0.00,meteohub,2013-05-07 17:32:00,
2013-05-07 12:37:00,73.4,50.2,30.00,WNW,294,5.0,5.0,44,0.00,,,0.00,meteohub,2013-05-07 17:37:00,
2013-05-07 12:42:00,74.5,49.8,30.00,WNW,298,0.0,11.0,42,0.00,,,0.00,meteohub,2013-05-07 17:42:00,
2013-05-07 12:47:00,74.8,50.2,30.00,NNW,345,0.0,11.0,42,0.00,,,0.00,meteohub,2013-05-07 17:47:00,
2013-05-07 12:52:00,73.9,48.7,30.00,NE,52,0.0,11.0,41,0.00,,,0.00,meteohub,2013-05-07 17:52:00,
2013-05-07 12:57:00,73.6,48.4,30.00,NE,51,0.0,5.0,41,0.00,,,0.00,meteohub,2013-05-07 17:57:00,
2013-05-07 13:02:00,73.6,49.1,30.00,SW,229,3.0,4.0,42,0.00,,,0.00,meteohub,2013-05-07 18:02:00,
2013-05-07 13:07:00,73.2,49.5,29.99,SW,230,0.0,4.0,43,0.00,,,0.00,meteohub,2013-05-07 18:07:00,
2013-05-07 13:12:00,75.4,50.0,29.99,ENE,60,2.0,3.0,41,0.00,,,0.00,meteohub,2013-05-07 18:12:00,
2013-05-07 13:17:00,76.6,50.5,29.99,NE,45,4.0,4.0,40,0.00,,,0.00,meteohub,2013-05-07 18:17:00,
2013-05-07 13:22:00,76.3,49.5,29.99,ENE,63,0.0,4.0,39,0.00,,,0.00,meteohub,2013-05-07 18:22:00,
2013-05-07 13:27:00,74.8,47.5,29.99,NE,42,1.0,4.0,38,0.00,,,0.00,meteohub,2013-05-07 18:27:00,
2013-05-07 13:32:00,76.6,51.3,29.99,West,280,0.0,5.0,41,0.00,,,0.00,meteohub,2013-05-07 18:32:00,
2013-05-07 13:37:00,77.2,49.6,29.98,SE,125,0.0,5.0,38,0.00,,,0.00,meteohub,2013-05-07 18:37:00,
2013-05-07 13:42:00,77.9,50.2,29.99,WNW,294,0.0,7.0,38,0.00,,,0.00,meteohub,2013-05-07 18:42:00,
2013-05-07 13:47:00,78.3,49.1,29.98,NNW,329,0.0,7.0,36,0.00,,,0.00,meteohub,2013-05-07 18:47:00,
2013-05-07 13:52:00,77.9,49.5,29.98,North,350,0.0,7.0,37,0.00,,,0.00,meteohub,2013-05-07 18:52:00,
2013-05-07 13:57:00,78.1,48.9,29.98,NE,44,1.0,9.0,36,0.00,,,0.00,meteohub,2013-05-07 18:57:00,
2013-05-07 14:02:00,79.5,50.9,29.98,NNE,33,2.0,9.0,37,0.00,,,0.00,meteohub,2013-05-07 19:02:00,
2013-05-07 14:07:00,79.3,50.7,29.98,NW,322,0.0,9.0,37,0.00,,,0.00,meteohub,2013-05-07 19:07:00,
2013-05-07 14:12:00,78.1,50.4,29.98,NW,311,0.0,5.0,38,0.00,,,0.00,meteohub,2013-05-07 19:12:00,
2013-05-07 14:17:00,76.8,49.3,29.98,SW,230,0.0,5.0,38,0.00,,,0.00,meteohub,2013-05-07 19:17:00,
2013-05-07 14:22:00,77.4,49.1,29.98,SW,224,0.0,5.0,37,0.00,,,0.00,meteohub,2013-05-07 19:22:00,
2013-05-07 14:27:00,77.7,48.6,29.98,NNW,338,4.0,4.0,36,0.00,,,0.00,meteohub,2013-05-07 19:27:00,
2013-05-07 14:32:00,77.5,48.6,29.98,WNW,296,0.0,8.0,36,0.00,,,0.00,meteohub,2013-05-07 19:32:00,
2013-05-07 14:37:00,75.4,48.0,29.98,WSW,240,0.0,8.0,38,0.00,,,0.00,meteohub,2013-05-07 19:37:00,
2013-05-07 14:42:00,75.9,49.8,29.97,WSW,240,0.0,8.0,40,0.00,,,0.00,meteohub,2013-05-07 19:42:00,
2013-05-07 14:47:00,77.2,49.6,29.97,West,264,1.0,3.0,38,0.00,,,0.00,meteohub,2013-05-07 19:47:00,
2013-05-07 14:52:00,77.9,48.7,29.97,West,270,2.0,10.0,36,0.00,,,0.00,meteohub,2013-05-07 19:52:00,
2013-05-07 14:57:00,77.2,49.6,29.97,North,355,0.0,10.0,38,0.00,,,0.00,meteohub,2013-05-07 19:57:00,
2013-05-07 15:02:00,76.6,48.4,29.97,WNW,295,0.0,10.0,37,0.00,,,0.00,meteohub,2013-05-07 20:02:00,
2013-05-07 15:07:00,75.9,49.8,29.97,NNE,25,0.0,6.0,40,0.00,,,0.00,meteohub,2013-05-07 20:07:00,
2013-05-07 15:12:00,75.0,49.1,29.97,NNE,25,0.0,5.0,40,0.00,,,0.00,meteohub,2013-05-07 20:12:00,
2013-05-07 15:17:00,74.7,48.0,29.97,NNE,25,0.0,5.0,39,0.00,,,0.00,meteohub,2013-05-07 20:17:00,
2013-05-07 15:22:00,74.7,48.7,29.97,SSE,150,0.0,3.0,40,0.00,,,0.00,meteohub,2013-05-07 20:22:00,
2013-05-07 15:27:00,75.7,49.6,29.96,South,173,0.0,3.0,40,0.00,,,0.00,meteohub,2013-05-07 20:27:00,
2013-05-07 15:32:00,77.2,49.6,29.96,NW,317,0.0,3.0,38,0.00,,,0.00,meteohub,2013-05-07 20:32:00,
2013-05-07 15:37:00,78.6,49.5,29.96,NW,315,1.0,6.0,36,0.00,,,0.00,meteohub,2013-05-07 20:37:00,
2013-05-07 15:42:00,78.3,49.1,29.96,NW,304,5.0,6.0,36,0.00,,,0.00,meteohub,2013-05-07 20:42:00,
2013-05-07 15:47:00,78.3,49.1,29.96,NNW,338,1.0,9.0,36,0.00,,,0.00,meteohub,2013-05-07 20:47:00,
2013-05-07 15:52:00,78.1,48.9,29.96,NNE,28,0.0,9.0,36,0.00,,,0.00,meteohub,2013-05-07 20:52:00,
2013-05-07 15:57:00,78.4,49.3,29.95,NNE,19,0.0,7.0,36,0.00,,,0.00,meteohub,2013-05-07 20:57:00,
2013-05-07 16:02:00,78.6,48.7,29.95,West,281,2.0,5.0,35,0.00,,,0.00,meteohub,2013-05-07 21:02:00,
2013-05-07 16:07:00,78.3,48.4,29.95,West,264,1.0,11.0,35,0.00,,,0.00,meteohub,2013-05-07 21:07:00,
2013-05-07 16:12:00,79.0,49.8,29.95,NNW,345,0.0,11.0,36,0.00,,,0.00,meteohub,2013-05-07 21:12:00,
2013-05-07 16:17:00,79.5,50.2,29.95,NNW,328,0.0,11.0,36,0.00,,,0.00,meteohub,2013-05-07 21:17:00,
2013-05-07 16:22:00,79.5,48.7,29.95,West,259,3.0,5.0,34,0.00,,,0.00,meteohub,2013-05-07 21:22:00,
2013-05-07 16:27:00,78.6,48.7,29.95,WNW,288,3.0,7.0,35,0.00,,,0.00,meteohub,2013-05-07 21:27:00,
2013-05-07 16:32:00,77.7,47.8,29.95,WNW,288,0.0,7.0,35,0.00,,,0.00,meteohub,2013-05-07 21:32:00,
2013-05-07 16:37:00,76.6,48.4,29.95,NNW,340,1.0,7.0,37,0.00,,,0.00,meteohub,2013-05-07 21:37:00,
2013-05-07 16:42:00,77.0,50.2,29.95,WSW,242,4.0,7.0,39,0.00,,,0.00,meteohub,2013-05-07 21:42:00,
2013-05-07 16:47:00,77.7,49.5,29.94,SW,232,0.0,5.0,37,0.00,,,0.00,meteohub,2013-05-07 21:47:00,
2013-05-07 16:52:00,77.2,48.2,29.94,WSW,249,1.0,5.0,36,0.00,,,0.00,meteohub,2013-05-07 21:52:00,
2013-05-07 16:57:00,76.1,48.6,29.94,West,265,0.0,5.0,38,0.00,,,0.00,meteohub,2013-05-07 21:57:00,
2013-05-07 17:02:00,77.0,48.7,29.94,NNE,22,0.0,4.0,37,0.00,,,0.00,meteohub,2013-05-07 22:02:00,
2013-05-07 17:07:00,77.2,48.9,29.94,SE,127,0.0,4.0,37,0.00,,,0.00,meteohub,2013-05-07 22:07:00,
2013-05-07 17:12:00,77.2,49.6,29.94,SSW,192,1.0,4.0,38,0.00,,,0.00,meteohub,2013-05-07 22:12:00,
2013-05-07 17:17:00,77.4,49.8,29.94,WSW,244,1.0,4.0,38,0.00,,,0.00,meteohub,2013-05-07 22:17:00,
2013-05-07 17:22:00,77.2,48.9,29.94,North,355,0.0,6.0,37,0.00,,,0.00,meteohub,2013-05-07 22:22:00,
2013-05-07 17:27:00,77.2,48.9,29.94,WSW,258,1.0,9.0,37,0.00,,,0.00,meteohub,2013-05-07 22:27:00,
2013-05-07 17:32:00,77.0,48.7,29.94,SW,235,1.0,9.0,37,0.00,,,0.00,meteohub,2013-05-07 22:32:00,
2013-05-07 17:37:00,77.0,49.5,29.94,WSW,238,1.0,9.0,38,0.00,,,0.00,meteohub,2013-05-07 22:37:00,
2013-05-07 17:42:00,77.0,50.2,29.94,WNW,300,2.0,4.0,39,0.00,,,0.00,meteohub,2013-05-07 22:42:00,
2013-05-07 17:47:00,76.8,48.6,29.94,WNW,290,5.0,5.0,37,0.00,,,0.00,meteohub,2013-05-07 22:47:00,
2013-05-07 17:52:00,76.5,48.9,29.94,WSW,256,1.0,9.0,38,0.00,,,0.00,meteohub,2013-05-07 22:52:00,
2013-05-07 17:57:00,76.3,48.7,29.94,SW,225,1.0,9.0,38,0.00,,,0.00,meteohub,2013-05-07 22:57:00,
2013-05-07 18:02:00,76.3,48.7,29.94,SSW,207,0.0,9.0,38,0.00,,,0.00,meteohub,2013-05-07 23:02:00,
2013-05-07 18:07:00,76.3,48.7,29.94,West,274,0.0,4.0,38,0.00,,,0.00,meteohub,2013-05-07 23:07:00,
2013-05-07 18:12:00,76.3,49.5,29.94,West,281,3.0,6.0,39,0.00,,,0.00,meteohub,2013-05-07 23:12:00,
2013-05-07 18:17:00,75.7,48.4,29.94,North,355,2.0,6.0,38,0.00,,,0.00,meteohub,2013-05-07 23:17:00,
2013-05-07 18:22:00,75.7,49.1,29.94,WNW,298,0.0,7.0,39,0.00,,,0.00,meteohub,2013-05-07 23:22:00,
2013-05-07 18:27:00,75.7,49.1,29.94,WNW,296,1.0,7.0,39,0.00,,,0.00,meteohub,2013-05-07 23:27:00,
2013-05-07 18:32:00,75.4,48.7,29.94,NW,306,0.0,8.0,39,0.00,,,0.00,meteohub,2013-05-07 23:32:00,
2013-05-07 18:37:00,75.0,48.4,29.94,NW,306,0.0,8.0,39,0.00,,,0.00,meteohub,2013-05-07 23:37:00,
2013-05-07 18:42:00,74.8,49.6,29.94,WNW,303,0.0,6.0,41,0.00,,,0.00,meteohub,2013-05-07 23:42:00,
2013-05-07 18:47:00,74.8,48.9,29.94,WNW,303,0.0,2.0,40,0.00,,,0.00,meteohub,2013-05-07 23:47:00,
2013-05-07 18:52:00,74.7,49.5,29.94,NW,322,0.0,3.0,41,0.00,,,0.00,meteohub,2013-05-07 23:52:00,
2013-05-07 18:57:00,74.5,49.8,29.94,NW,321,0.0,3.0,42,0.00,,,0.00,meteohub,2013-05-07 23:57:00,
2013-05-07 19:02:00,74.5,49.3,29.94,NW,307,0.0,3.0,41,0.00,,,0.00,meteohub,2013-05-08 00:02:00,
2013-05-07 19:07:00,74.7,50.0,29.94,NW,321,0.0,4.0,42,0.00,,,0.00,meteohub,2013-05-08 00:07:00,
2013-05-07 19:12:00,74.5,49.8,29.94,WNW,296,0.0,4.0,42,0.00,,,0.00,meteohub,2013-05-08 00:12:00,
2013-05-07 19:17:00,74.3,49.6,29.93,NW,326,0.0,6.0,42,0.00,,,0.00,meteohub,2013-05-08 00:17:00,
2013-05-07 19:22:00,74.1,49.6,29.93,NNW,332,0.0,6.0,42,0.00,,,0.00,meteohub,2013-05-08 00:22:00,
2013-05-07 19:27:00,73.9,49.5,29.93,NW,315,2.0,6.0,42,0.00,,,0.00,meteohub,2013-05-08 00:27:00,
2013-05-07 19:32:00,73.9,49.5,29.93,NW,315,0.0,5.0,42,0.00,,,0.00,meteohub,2013-05-08 00:32:00,
2013-05-07 19:37:00,73.4,49.5,29.93,NW,315,0.0,5.0,43,0.00,,,0.00,meteohub,2013-05-08 00:37:00,
2013-05-07 19:42:00,72.9,49.1,29.93,NW,315,0.0,3.0,43,0.00,,,0.00,meteohub,2013-05-08 00:42:00,
2013-05-07 19:47:00,72.7,49.5,29.93,NW,315,0.0,2.0,44,0.00,,,0.00,meteohub,2013-05-08 00:47:00,
2013-05-07 19:52:00,72.5,49.3,29.93,NW,315,0.0,2.0,44,0.00,,,0.00,meteohub,2013-05-08 00:52:00,
2013-05-07 19:57:00,72.1,49.1,29.93,NW,315,0.0,2.0,44,0.00,,,0.00,meteohub,2013-05-08 00:57:00,
2013-05-07 20:02:00,71.6,49.6,29.93,NW,315,0.0,1.0,46,0.00,,,0.00,meteohub,2013-05-08 01:02:00,
2013-05-07 20:07:00,71.2,50.0,29.93,NW,315,0.0,1.0,47,0.00,,,0.00,meteohub,2013-05-08 01:07:00,
2013-05-07 20:12:00,70.5,49.3,29.93,NW,315,0.0,0.0,47,0.00,,,0.00,meteohub,2013-05-08 01:12:00,
2013-05-07 20:17:00,70.0,49.5,29.93,NW,315,0.0,0.0,48,0.00,,,0.00,meteohub,2013-05-08 01:17:00,
2013-05-07 20:22:00,69.4,49.5,29.92,NW,315,0.0,0.0,49,0.00,,,0.00,meteohub,2013-05-08 01:22:00,
2013-05-07 20:27:00,68.9,49.5,29.93,NW,315,0.0,0.0,50,0.00,,,0.00,meteohub,2013-05-08 01:27:00,
2013-05-07 20:32:00,68.5,49.1,29.93,NW,315,0.0,0.0,50,0.00,,,0.00,meteohub,2013-05-08 01:32:00,
2013-05-07 20:37:00,68.2,49.8,29.93,NW,315,0.0,0.0,52,0.00,,,0.00,meteohub,2013-05-08 01:37:00,
2013-05-07 20:42:00,67.8,49.6,29.93,NW,315,0.0,0.0,52,0.00,,,0.00,meteohub,2013-05-08 01:42:00,
2013-05-07 20:47:00,67.6,49.8,29.93,NW,315,0.0,0.0,53,0.00,,,0.00,meteohub,2013-05-08 01:47:00,
2013-05-07 20:52:00,67.1,49.8,29.93,NW,315,0.0,0.0,54,0.00,,,0.00,meteohub,2013-05-08 01:52:00,
2013-05-07 20:57:00,66.7,50.0,29.93,NW,315,0.0,0.0,55,0.00,,,0.00,meteohub,2013-05-08 01:57:00,
2013-05-07 21:02:00,66.2,50.0,29.93,NW,315,0.0,0.0,56,0.00,,,0.00,meteohub,2013-05-08 02:02:00,
2013-05-07 21:07:00,65.8,50.2,29.94,NW,315,0.0,0.0,57,0.00,,,0.00,meteohub,2013-05-08 02:07:00,
2013-05-07 21:12:00,65.5,49.8,29.94,NW,315,0.0,0.0,57,0.00,,,0.00,meteohub,2013-05-08 02:12:00,
2013-05-07 21:17:00,64.9,49.8,29.93,NW,315,0.0,0.0,58,0.00,,,0.00,meteohub,2013-05-08 02:17:00,
2013-05-07 21:22:00,64.6,50.0,29.94,NW,315,0.0,0.0,59,0.00,,,0.00,meteohub,2013-05-08 02:22:00,
2013-05-07 21:27:00,64.2,50.0,29.94,NW,315,0.0,0.0,60,0.00,,,0.00,meteohub,2013-05-08 02:27:00,
2013-05-07 21:32:00,64.0,50.4,29.94,NW,315,0.0,0.0,61,0.00,,,0.00,meteohub,2013-05-08 02:32:00,
2013-05-07 21:37:00,63.7,50.0,29.94,NW,315,0.0,0.0,61,0.00,,,0.00,meteohub,2013-05-08 02:37:00,
2013-05-07 21:42:00,63.1,49.8,29.94,NW,315,0.0,0.0,62,0.00,,,0.00,meteohub,2013-05-08 02:42:00,
2013-05-07 21:47:00,63.0,49.8,29.94,NW,315,0.0,0.0,62,0.00,,,0.00,meteohub,2013-05-08 02:47:00,
2013-05-07 21:52:00,62.8,50.0,29.94,NW,315,0.0,0.0,63,0.00,,,0.00,meteohub,2013-05-08 02:52:00,
2013-05-07 21:57:00,62.6,49.8,29.94,NW,315,0.0,0.0,63,0.00,,,0.00,meteohub,2013-05-08 02:57:00,
2013-05-07 22:02:00,62.2,50.0,29.94,NW,315,0.0,0.0,64,0.00,,,0.00,meteohub,2013-05-08 03:02:00,
2013-05-07 22:07:00,62.1,49.8,29.94,NW,315,0.0,0.0,64,0.00,,,0.00,meteohub,2013-05-08 03:07:00,
2013-05-07 22:12:00,61.9,50.0,29.94,NW,315,0.0,0.0,65,0.00,,,0.00,meteohub,2013-05-08 03:12:00,
2013-05-07 22:17:00,61.5,49.6,29.94,NW,315,0.0,0.0,65,0.00,,,0.00,meteohub,2013-05-08 03:17:00,
2013-05-07 22:22:00,61.2,49.6,29.94,NW,315,0.0,0.0,66,0.00,,,0.00,meteohub,2013-05-08 03:22:00,
2013-05-07 22:27:00,61.0,49.5,29.94,NW,315,0.0,0.0,66,0.00,,,0.00,meteohub,2013-05-08 03:27:00,
2013-05-07 22:32:00,60.6,49.6,29.94,NW,315,0.0,0.0,67,0.00,,,0.00,meteohub,2013-05-08 03:32:00,
2013-05-07 22:37:00,60.4,49.5,29.94,NW,315,0.0,0.0,67,0.00,,,0.00,meteohub,2013-05-08 03:37:00,
2013-05-07 22:42:00,60.3,49.6,29.94,NW,315,0.0,0.0,68,0.00,,,0.00,meteohub,2013-05-08 03:42:00,
2013-05-07 22:47:00,60.1,49.5,29.94,NW,315,0.0,0.0,68,0.00,,,0.00,meteohub,2013-05-08 03:47:00,
2013-05-07 22:52:00,59.7,49.5,29.94,NW,315,0.0,0.0,69,0.00,,,0.00,meteohub,2013-05-08 03:52:00,
2013-05-07 22:57:00,59.7,49.5,29.94,NW,315,0.0,0.0,69,0.00,,,0.00,meteohub,2013-05-08 03:57:00,
2013-05-07 23:01:00,59.5,49.3,29.94,NW,315,0.0,0.0,69,0.00,,,0.00,meteohub,2013-05-08 04:01:00,
2013-05-07 23:02:00,59.5,49.3,29.94,NW,315,0.0,0.0,69,0.00,,,0.00,meteohub,2013-05-08 04:02:00,
2013-05-07 23:04:00,59.5,49.3,29.94,NW,315,0.0,0.0,69,0.00,,,0.00,meteohub,2013-05-08 04:04:00,
2013-05-07 23:07:00,59.5,49.3,29.94,NW,315,0.0,0.0,69,0.00,,,0.00,meteohub,2013-05-08 04:07:00,
2013-05-07 23:12:00,59.2,49.5,29.94,NW,315,0.0,0.0,70,0.00,,,0.00,meteohub,2013-05-08 04:12:00,
2013-05-07 23:17:00,59.0,49.3,29.94,NW,315,0.0,0.0,70,0.00,,,0.00,meteohub,2013-05-08 04:17:00,
2013-05-07 23:22:00,59.0,49.6,29.94,NW,315,0.0,0.0,71,0.00,,,0.00,meteohub,2013-05-08 04:22:00,
2013-05-07 23:27:00,59.0,49.6,29.94,NW,315,0.0,0.0,71,0.00,,,0.00,meteohub,2013-05-08 04:27:00,
2013-05-07 23:33:00,58.8,49.5,29.94,NW,315,0.0,0.0,71,0.00,,,0.00,meteohub,2013-05-08 04:33:00,
2013-05-07 23:38:00,58.6,49.3,29.94,NW,315,0.0,0.0,71,0.00,,,0.00,meteohub,2013-05-08 04:38:00,
2013-05-07 23:43:00,58.5,49.5,29.94,NW,315,0.0,0.0,72,0.00,,,0.00,meteohub,2013-05-08 04:43:00,
2013-05-07 23:48:00,58.3,49.3,29.94,NW,315,0.0,0.0,72,0.00,,,0.00,meteohub,2013-05-08 04:48:00,
2013-05-07 23:53:00,57.9,48.9,29.94,NW,315,0.0,0.0,72,0.00,,,0.00,meteohub,2013-05-08 04:53:00,
2013-05-07 23:58:00,57.9,49.3,29.94,NW,315,0.0,1.0,73,0.00,,,0.00,meteohub,2013-05-08 04:58:00,